IRIDIUM 33 DEB, 34651

Orbit data source: Space-Track

IRIDIUM 33 DEB, 34651 is space debris in LEO originally from a launch on Sun, 14 Sep 1997 UTC launched from the Tyuratam Missile And Space Complex (TTMTR). The debris from Iridium 33, an American commercial communications satellite, has been tracked extensively since its accidental collision with the defunct Russian satellite Cosmos 2251 in 2009. This event, occurring at high speed in low Earth orbit (LEO), generated thousands of pieces of space debris, significantly increasing the risk of further collisions. The Iridium 33 debris cloud has impacted space traffic management and orbital debris mitigation strategies, making it a subject of ongoing study in space situational awareness.

Loading next visibility...
Identifier
34651, 1997-051KC
Orbit
LEO
Country
Flag of USUS
Related business
Manufacturer
Unknown
Mission
Spacecraft
Bus & Motor
Unknown
Mass
Unknown
Launch date (UTC)
1997-09-14 (28 years ago)
Launch vehicle
Unknown
Launch site
Tyuratam Missile And Space Complex (TTMTR)
Object type
Payload
Rocket body
Debris
Shape & HBR
Unknown shape, 0.1 m
Radar Cross Section
Small (<0.1 m²)

Expand to show TLE details & history
Last TLE update: 7 hours ago

TLE from 7 hours ago
0 IRIDIUM 33 DEB
1 34651U 97051KC  26038.22267903  .00007086  00000-0  26490-2 0  9995
2 34651  86.2793 116.5216 0133485  23.5722 337.1509 14.26888542867011
Epoch: 2026-02-07T05:20Z
TLE epoch observation values (Epoch: 2026-02-07T05:20:39.468Z)
Latitude
0.00001°
Longitude
-100.99214°
Altitude
717.042 km
Speed
7.543 km/s
True Right ascension
07h 46m 05s
True Declination
0° 00' 00"
Sunlit
Object was in full shadow at epoch
Visualization orbit readout
Latitude
Unknown
Longitude
Unknown
Altitude
Unknown
Speed
Unknown
Apparent Right ascension
Unknown
Apparent Declination
Unknown
Sunlit
N/A
Visualization observer readout
Local Sidereal Time
14:41:30
Azimuth
Unknown
Elevation
Unknown
Doppler factor
Unknown
Orbital elements
Apogee altitude
894.932 km
Perigee altitude
703.321 km
Semi-major axis
7,177.264 km
Eccentricity
0.01335
Inclination
86.2793°
RAAN
116.5216°
Arg. of periapsis
23.5722°
True anomaly
336.54768°
Mean anomaly
337.1509°
Eccentric anomaly
336.85022°
Mean motion
3.56948 °/min
Orbital period
100.86 mins
BSTAR
0.002649
Loading maneuver chart data...
Computing Atmospheric mass density...
Loading historical data...
Loading historical data...
Loading historical data...
Loading historical data...
Loading historical data...
Loading historical data...
Loading historical data...

Documentation

Showing up to 5 results
|